| time (UTC) | temp F | wind direction | speed MPH | gust MPH | rain 1hr in | rain 24hr in | rain mn in | humidity % | barometer mb |
| 20260902011831 | 64 | 214 | 0.0 | 5.0 | 0.00 | 0.02 | 0.02 | 85 | 1010.6 |
| 20260902010831 | 64 | 203 | 3.0 | 4.0 | 0.00 | 0.02 | 0.02 | 85 | 1010.6 |
| 20260902010331 | 64 | 245 | 3.0 | 5.0 | 0.00 | 0.02 | 0.02 | 84 | 1010.6 |
| 20260902005832 | 64 | 204 | 3.0 | 5.0 | 0.00 | 0.02 | 0.02 | 84 | 1010.6 |
| 20260902005331 | 64 | 235 | 4.0 | 5.0 | 0.00 | 0.02 | 0.02 | 84 | 1010.6 |
| 20260902004832 | 64 | 211 | 3.0 | 5.0 | 0.00 | 0.02 | 0.02 | 84 | 1010.6 |
| 20260902003831 | 65 | 212 | 4.0 | 7.0 | 0.00 | 0.02 | 0.02 | 83 | 1010.7 |
| 20260902003331 | 65 | 298 | 4.0 | 7.0 | 0.00 | 0.02 | 0.02 | 82 | 1010.7 |
| 20260902002832 | 65 | 228 | 4.0 | 11.0 | 0.00 | 0.02 | 0.02 | 81 | 1010.7 |
| 20260902002331 | 65 | 254 | 4.0 | 11.0 | 0.00 | 0.02 | 0.02 | 81 | 1010.8 |
| 20260902001832 | 65 | 215 | 4.0 | 6.0 | 0.00 | 0.02 | 0.02 | 79 | 1010.8 |
| 20260902001333 | 65 | 212 | 4.0 | 5.0 | 0.00 | 0.02 | 0.02 | 82 | 1010.7 |
| 20260902000831 | 65 | 211 | 3.0 | 5.0 | 0.00 | 0.02 | 0.02 | 82 | 1010.8 |
| 20260902000331 | 65 | 183 | 2.0 | 6.0 | 0.00 | 0.02 | 0.02 | 83 | 1010.8 |
| 20260901235832 | 65 | 197 | 4.0 | 6.0 | 0.00 | 0.02 | 0.02 | 84 | 1010.8 |
| 20260901235331 | 64 | 207 | 3.0 | 6.0 | 0.00 | 0.02 | 0.02 | 86 | 1010.8 |
| 20260901234831 | 64 | 252 | 4.0 | 6.0 | 0.00 | 0.02 | 0.02 | 85 | 1010.9 |
| 20260901234332 | 64 | 229 | 3.0 | 6.0 | 0.00 | 0.02 | 0.02 | 85 | 1010.9 |
| 20260901233831 | 64 | 250 | 1.0 | 4.0 | 0.00 | 0.02 | 0.02 | 86 | 1010.9 |
| 20260901233331 | 64 | 219 | 3.0 | 6.0 | 0.00 | 0.02 | 0.02 | 85 | 1011.0 |
| 20260901232832 | 65 | 257 | 3.0 | 6.0 | 0.00 | 0.02 | 0.02 | 84 | 1010.9 |
| 20260901232331 | 65 | 226 | 4.0 | 5.0 | 0.00 | 0.02 | 0.02 | 84 | 1010.9 |
| 20260901231331 | 65 | 260 | 3.0 | 7.0 | 0.00 | 0.02 | 0.02 | 83 | 1011.0 |
| 20260901230831 | 65 | 232 | 5.0 | 6.0 | 0.00 | 0.02 | 0.02 | 84 | 1010.9 |
| 20260901230331 | 65 | 231 | 4.0 | 8.0 | 0.00 | 0.02 | 0.02 | 85 | 1011.0 |
| 20260901225831 | 65 | 218 | 5.0 | 8.0 | 0.00 | 0.02 | 0.02 | 85 | 1011.0 |
| 20260901225331 | 65 | 203 | 4.0 | 6.0 | 0.00 | 0.02 | 0.02 | 85 | 1011.0 |
| 20260901224832 | 65 | 232 | 4.0 | 6.0 | 0.00 | 0.02 | 0.02 | 85 | 1011.0 |
| 20260901223831 | 64 | 275 | 4.0 | 5.0 | 0.00 | 0.02 | 0.02 | 86 | 1011.1 |
| 20260901223331 | 64 | 224 | 4.0 | 5.0 | 0.00 | 0.02 | 0.02 | 86 | 1011.1 |
| 20260901222831 | 64 | 204 | 4.0 | 5.0 | 0.00 | 0.02 | 0.02 | 87 | 1011.1 |
| 20260901222331 | 64 | 204 | 4.0 | 5.0 | 0.00 | 0.02 | 0.02 | 87 | 1011.3 |
| 20260901221831 | 64 | 211 | 3.0 | 5.0 | 0.00 | 0.02 | 0.02 | 86 | 1011.3 |
| 20260901220831 | 64 | 211 | 4.0 | 6.0 | 0.00 | 0.02 | 0.02 | 85 | 1011.1 |
| 20260901220331 | 64 | 214 | 4.0 | 6.0 | 0.00 | 0.02 | 0.02 | 85 | 1011.1 |
| 20260901215831 | 64 | 224 | 5.0 | 7.0 | 0.00 | 0.02 | 0.02 | 85 | 1011.1 |
| 20260901215331 | 64 | 204 | 5.0 | 7.0 | 0.00 | 0.02 | 0.02 | 86 | 1011.1 |
| 20260901214831 | 64 | 224 | 5.0 | 6.0 | 0.00 | 0.02 | 0.02 | 85 | 1011.1 |
| 20260901214331 | 64 | 211 | 5.0 | 6.0 | 0.00 | 0.02 | 0.02 | 85 | 1011.1 |
| 20260901213831 | 64 | 205 | 4.0 | 7.0 | 0.00 | 0.02 | 0.02 | 86 | 1011.0 |
| 20260901213331 | 64 | 233 | 4.0 | 7.0 | 0.00 | 0.02 | 0.02 | 86 | 1011.0 |
| 20260901212832 | 63 | 210 | 5.0 | 6.0 | 0.00 | 0.02 | 0.02 | 86 | 1011.0 |
| 20260901212331 | 63 | 226 | 4.0 | 6.0 | 0.00 | 0.02 | 0.02 | 87 | 1011.0 |
| 20260901211831 | 63 | 228 | 4.0 | 6.0 | 0.00 | 0.02 | 0.02 | 88 | 1011.0 |
| 20260901211331 | 63 | 219 | 5.0 | 5.0 | 0.00 | 0.02 | 0.02 | 88 | 1011.0 |
| 20260901210831 | 63 | 208 | 4.0 | 7.0 | 0.00 | 0.02 | 0.02 | 89 | 1011.0 |
| 20260901210331 | 63 | 219 | 5.0 | 7.0 | 0.00 | 0.02 | 0.02 | 88 | 1011.0 |
| 20260901205831 | 62 | 204 | 5.0 | 7.0 | 0.00 | 0.02 | 0.02 | 89 | 1011.0 |
| 20260901205331 | 62 | 232 | 4.0 | 7.0 | 0.00 | 0.02 | 0.02 | 89 | 1010.8 |
| 20260901204831 | 62 | 219 | 6.0 | 7.0 | 0.00 | 0.02 | 0.02 | 89 | 1011.0 |
| 20260901202832 | 62 | 226 | 6.0 | 8.0 | 0.00 | 0.02 | 0.02 | 91 | 1011.0 |
| 20260901202331 | 62 | 260 | 5.0 | 8.0 | 0.00 | 0.02 | 0.02 | 91 | 1011.1 |
| 20260901201832 | 62 | 207 | 4.0 | 4.0 | 0.00 | 0.02 | 0.02 | 91 | 1011.3 |
| 20260901200831 | 62 | 275 | 3.0 | 8.0 | 0.00 | 0.02 | 0.02 | 91 | 1011.1 |
| 20260901200331 | 62 | 203 | 4.0 | 6.0 | 0.00 | 0.02 | 0.02 | 92 | 1011.3 |
| 20260901195331 | 62 | 243 | 5.0 | 10.0 | 0.00 | 0.02 | 0.02 | 92 | 1011.3 |
| 20260901194833 | 62 | 219 | 5.0 | 10.0 | 0.00 | 0.02 | 0.02 | 92 | 1011.3 |
| 20260901194331 | 62 | 196 | 5.0 | 10.0 | 0.00 | 0.02 | 0.02 | 92 | 1011.3 |
| 20260901193831 | 62 | 250 | 5.0 | 10.0 | 0.00 | 0.02 | 0.02 | 93 | 1011.3 |
| 20260901192831 | 62 | 253 | 5.0 | 7.0 | 0.00 | 0.02 | 0.02 | 93 | 1011.3 |
| 20260901192331 | 62 | 228 | 5.0 | 5.0 | 0.00 | 0.02 | 0.02 | 94 | 1011.3 |
| 20260901191832 | 62 | 229 | 4.0 | 5.0 | 0.00 | 0.02 | 0.02 | 94 | 1011.3 |
| 20260901191331 | 62 | 0 | 3.0 | 4.0 | 0.00 | 0.02 | 0.02 | 94 | 1011.3 |
| 20260901190831 | 62 | 261 | 0.0 | 4.0 | 0.00 | 0.02 | 0.02 | 95 | 1011.1 |
| 20260901190331 | 62 | 0 | 2.0 | 4.0 | 0.00 | 0.02 | 0.02 | 95 | 1010.9 |
| 20260901185832 | 62 | 205 | 0.0 | 4.0 | 0.00 | 0.02 | 0.02 | 95 | 1011.1 |
| 20260901185331 | 62 | 168 | 1.0 | 3.0 | 0.00 | 0.02 | 0.02 | 95 | 1011.1 |
| 20260901184831 | 62 | 214 | 0.0 | 3.0 | 0.00 | 0.02 | 0.02 | 96 | 1011.3 |
| 20260901183831 | 62 | 260 | 3.0 | 6.0 | 0.00 | 0.02 | 0.02 | 96 | 1011.1 |
| 20260901183331 | 62 | 0 | 3.0 | 4.0 | 0.00 | 0.02 | 0.02 | 96 | 1011.1 |
| 20260901182831 | 62 | 0 | 0.0 | 0.0 | 0.00 | 0.02 | 0.02 | 96 | 1011.1 |
| 20260901182331 | 62 | 0 | 0.0 | 0.0 | 0.00 | 0.02 | 0.02 | 96 | 1011.1 |
| 20260901181831 | 62 | 0 | 0.0 | 0.0 | 0.00 | 0.02 | 0.02 | 96 | 1011.0 |
| 20260901181333 | 62 | 0 | 0.0 | 0.0 | 0.00 | 0.02 | 0.02 | 96 | 1011.1 |
| 20260901180831 | 62 | 0 | 0.0 | 6.0 | 0.00 | 0.02 | 0.02 | 96 | 1011.3 |
| 20260901180331 | 62 | 270 | 0.0 | 6.0 | 0.00 | 0.02 | 0.02 | 96 | 1011.3 |
| 20260901175831 | 62 | 267 | 0.0 | 4.0 | 0.00 | 0.02 | 0.02 | 96 | 1011.3 |
| 20260901175331 | 62 | 0 | 0.0 | 0.0 | 0.00 | 0.02 | 0.02 | 96 | 1011.3 |
| 20260901174831 | 62 | 0 | 0.0 | 4.0 | 0.00 | 0.02 | 0.02 | 97 | 1011.3 |
| 20260901174337 | 62 | 205 | 0.0 | 4.0 | 0.00 | 0.02 | 0.02 | 97 | 1011.3 |
| 20260901173831 | 62 | 0 | 1.0 | 1.0 | 0.00 | 0.02 | 0.02 | 97 | 1011.1 |
| 20260901173331 | 62 | 0 | 0.0 | 0.0 | 0.01 | 0.02 | 0.02 | 97 | 1011.0 |
| 20260901172831 | 62 | 0 | 0.0 | 0.0 | 0.01 | 0.02 | 0.02 | 97 | 1010.9 |
| 20260901172331 | 61 | 0 | 0.0 | 0.0 | 0.01 | 0.02 | 0.02 | 97 | 1010.9 |
| 20260901171831 | 61 | 0 | 0.0 | 0.0 | 0.01 | 0.02 | 0.02 | 98 | 1010.8 |
| 20260901171331 | 61 | 0 | 0.0 | 0.0 | 0.01 | 0.02 | 0.02 | 97 | 1010.8 |
| 20260901170831 | 61 | 0 | 0.0 | 0.0 | 0.01 | 0.02 | 0.02 | 98 | 1010.9 |
| 20260901170331 | 61 | 0 | 0.0 | 0.0 | 0.01 | 0.02 | 0.02 | 98 | 1010.9 |
| 20260901165831 | 61 | 0 | 0.0 | 5.0 | 0.01 | 0.02 | 0.02 | 97 | 1010.9 |
| 20260901165331 | 61 | 233 | 0.0 | 5.0 | 0.01 | 0.02 | 0.02 | 98 | 1010.9 |
| 20260901164831 | 61 | 0 | 2.0 | 2.0 | 0.01 | 0.02 | 0.02 | 98 | 1010.8 |
| 20260901164331 | 61 | 0 | 0.0 | 0.0 | 0.01 | 0.02 | 0.02 | 98 | 1010.8 |
| 20260901163831 | 61 | 0 | 0.0 | 0.0 | 0.01 | 0.02 | 0.02 | 98 | 1010.9 |
| 20260901163331 | 61 | 0 | 0.0 | 0.0 | 0.00 | 0.02 | 0.02 | 98 | 1011.0 |
| 20260901162832 | 61 | 0 | 0.0 | 0.0 | 0.00 | 0.02 | 0.02 | 98 | 1011.0 |
| 20260901162331 | 61 | 0 | 0.0 | 0.0 | 0.00 | 0.01 | 0.01 | 98 | 1011.1 |
| 20260901161831 | 61 | 0 | 0.0 | 0.0 | 0.00 | 0.01 | 0.01 | 98 | 1011.1 |
| 20260901161331 | 61 | 0 | 0.0 | 0.0 | 0.00 | 0.01 | 0.01 | 98 | 1011.1 |
| 20260901160831 | 61 | 0 | 0.0 | 0.0 | 0.00 | 0.01 | 0.01 | 98 | 1011.1 |
| 20260901160334 | 60 | 0 | 0.0 | 0.0 | 0.00 | 0.01 | 0.01 | 98 | 1011.1 |
| 20260901155831 | 60 | 0 | 0.0 | 0.0 | 0.00 | 0.01 | 0.01 | 98 | 1011.0 |
| 20260901155331 | 60 | 0 | 0.0 | 0.0 | 0.00 | 0.01 | 0.01 | 98 | 1011.0 |
| 20260901154831 | 60 | 0 | 0.0 | 0.0 | 0.00 | 0.01 | 0.01 | 98 | 1011.0 |
| 20260901154331 | 60 | 0 | 0.0 | 0.0 | 0.01 | 0.01 | 0.01 | 98 | 1011.0 |
| 20260901153831 | 60 | 0 | 0.0 | 0.0 | 0.01 | 0.01 | 0.01 | 98 | 1011.0 |
| 20260901153331 | 60 | 0 | 0.0 | 0.0 | 0.01 | 0.01 | 0.01 | 98 | 1011.0 |
| 20260901152832 | 60 | 0 | 0.0 | 0.0 | 0.01 | 0.01 | 0.01 | 98 | 1011.0 |
| 20260901152331 | 60 | 0 | 0.0 | 0.0 | 0.01 | 0.01 | 0.01 | 98 | 1011.0 |
| 20260901151831 | 59 | 0 | 0.0 | 0.0 | 0.01 | 0.01 | 0.01 | 98 | 1011.0 |
| 20260901151335 | 59 | 0 | 0.0 | 0.0 | 0.01 | 0.01 | 0.01 | 98 | 1011.0 |
| 20260901150831 | 59 | 0 | 0.0 | 0.0 | 0.01 | 0.01 | 0.01 | 98 | 1011.0 |
| 20260901150331 | 59 | 0 | 0.0 | 0.0 | 0.01 | 0.01 | 0.01 | 98 | 1010.9 |
| 20260901145831 | 59 | 0 | 0.0 | 0.0 | 0.01 | 0.01 | 0.01 | 98 | 1010.9 |
| 20260901145331 | 59 | 0 | 0.0 | 0.0 | 0.01 | 0.01 | 0.01 | 98 | 1010.9 |
| 20260901144831 | 59 | 0 | 0.0 | 0.0 | 0.01 | 0.01 | 0.01 | 98 | 1010.9 |
| 20260901144331 | 59 | 0 | 0.0 | 0.0 | 0.00 | 0.01 | 0.01 | 98 | 1010.8 |
| 20260901143831 | 59 | 0 | 0.0 | 0.0 | 0.00 | 0.01 | 0.01 | 98 | 1010.8 |
| 20260901143331 | 59 | 0 | 0.0 | 0.0 | 0.00 | 0.00 | 0.00 | 98 | 1010.8 |
| 20260901142831 | 59 | 0 | 0.0 | 0.0 | 0.00 | 0.00 | 0.00 | 98 | 1010.8 |
| 20260901142331 | 59 | 0 | 0.0 | 0.0 | 0.00 | 0.00 | 0.00 | 98 | 1010.7 |
| 20260901141831 | 59 | 0 | 0.0 | 0.0 | 0.00 | 0.00 | 0.00 | 98 | 1010.6 |
| 20260901141331 | 59 | 0 | 0.0 | 0.0 | 0.00 | 0.00 | 0.00 | 98 | 1010.5 |
| 20260901140830 | 59 | 0 | 0.0 | 0.0 | 0.00 | 0.00 | 0.00 | 98 | 1010.5 |
| 20260901140330 | 59 | 0 | 0.0 | 0.0 | 0.00 | 0.00 | 0.00 | 98 | 1010.5 |
| 20260901135830 | 59 | 0 | 0.0 | 0.0 | 0.00 | 0.00 | 0.00 | 98 | 1010.5 |
| 20260901134833 | 59 | 0 | 0.0 | 0.0 | 0.00 | 0.00 | 0.00 | 98 | 1010.5 |
| 20260901134332 | 59 | 0 | 0.0 | 0.0 | 0.00 | 0.00 | 0.00 | 98 | 1010.4 |
| 20260901133830 | 59 | 0 | 0.0 | 0.0 | 0.00 | 0.00 | 0.00 | 98 | 1010.4 |
| 20260901133330 | 59 | 0 | 0.0 | 0.0 | 0.00 | 0.00 | 0.00 | 98 | 1010.3 |
| 20260901132830 | 59 | 0 | 0.0 | 0.0 | 0.00 | 0.00 | 0.00 | 98 | 1010.3 |
| 20260901131832 | 59 | 0 | 0.0 | 0.0 | 0.00 | 0.00 | 0.00 | 98 | 1010.3 |
| 20260901130330 | 59 | 0 | 0.0 | 0.0 | 0.00 | 0.00 | 0.00 | 98 | 1010.2 |
| 20260901125831 | 59 | 0 | 0.0 | 0.0 | 0.00 | 0.00 | 0.00 | 97 | 1010.1 |
| 20260901125330 | 59 | 0 | 0.0 | 0.0 | 0.00 | 0.00 | 0.00 | 97 | 1010.3 |
| 20260901124830 | 59 | 0 | 0.0 | 0.0 | 0.00 | 0.00 | 0.00 | 97 | 1010.3 |
| 20260901123830 | 59 | 0 | 0.0 | 0.0 | 0.00 | 0.00 | 0.00 | 97 | 1010.3 |
| 20260901123330 | 59 | 0 | 0.0 | 0.0 | 0.00 | 0.00 | 0.00 | 97 | 1010.3 |
| 20260901122830 | 59 | 0 | 0.0 | 0.0 | 0.00 | 0.00 | 0.00 | 97 | 1010.4 |
| 20260901122335 | 59 | 0 | 0.0 | 0.0 | 0.00 | 0.00 | 0.00 | 97 | 1010.3 |
| 20260901121334 | 59 | 0 | 0.0 | 0.0 | 0.00 | 0.00 | 0.00 | 97 | 1010.4 |
| 20260901120830 | 59 | 0 | 0.0 | 0.0 | 0.00 | 0.00 | 0.00 | 97 | 1010.3 |
| 20260901120422 | 59 | 0 | 0.0 | 0.0 | 0.00 | 0.00 | 0.00 | 97 | 1010.4 |
| 20260901120330 | 59 | 0 | 0.0 | 0.0 | 0.00 | 0.00 | 0.00 | 97 | 1010.4 |
| 20260901115830 | 59 | 0 | 0.0 | 0.0 | 0.00 | 0.00 | 0.00 | 97 | 1010.4 |
| 20260901115330 | 59 | 0 | 0.0 | 0.0 | 0.00 | 0.00 | 0.00 | 97 | 1010.4 |
| 20260901114830 | 59 | 0 | 0.0 | 0.0 | 0.00 | 0.00 | 0.00 | 96 | 1010.5 |
| 20260901114335 | 60 | 0 | 0.0 | 0.0 | 0.00 | 0.00 | 0.00 | 96 | 1010.5 |
| 20260901113830 | 60 | 0 | 0.0 | 0.0 | 0.00 | 0.00 | 0.00 | 96 | 1010.5 |
| 20260901113330 | 59 | 0 | 0.0 | 0.0 | 0.00 | 0.00 | 0.00 | 96 | 1010.6 |
| 20260901112830 | 60 | 0 | 0.0 | 0.0 | 0.00 | 0.00 | 0.00 | 96 | 1010.6 |
| 20260901112330 | 60 | 0 | 0.0 | 0.0 | 0.00 | 0.00 | 0.00 | 96 | 1010.6 |
| 20260901111830 | 59 | 0 | 0.0 | 0.0 | 0.00 | 0.00 | 0.00 | 96 | 1010.6 |
| 20260901111334 | 59 | 0 | 0.0 | 0.0 | 0.00 | 0.00 | 0.00 | 96 | 1010.4 |
| 20260901110830 | 60 | 0 | 0.0 | 0.0 | 0.00 | 0.00 | 0.00 | 96 | 1010.5 |
| 20260901110330 | 59 | 0 | 0.0 | 0.0 | 0.00 | 0.00 | 0.00 | 96 | 1010.5 |
| 20260901105831 | 60 | 0 | 0.0 | 0.0 | 0.00 | 0.00 | 0.00 | 96 | 1010.5 |
| 20260901105330 | 60 | 0 | 0.0 | 0.0 | 0.00 | 0.00 | 0.00 | 96 | 1010.5 |
| 20260901104830 | 60 | 0 | 0.0 | 0.0 | 0.00 | 0.00 | 0.00 | 96 | 1010.5 |
| 20260901103830 | 59 | 0 | 0.0 | 0.0 | 0.00 | 0.00 | 0.00 | 96 | 1010.6 |
| 20260901103330 | 59 | 0 | 0.0 | 0.0 | 0.00 | 0.00 | 0.00 | 96 | 1010.5 |
| 20260901102830 | 59 | 0 | 0.0 | 0.0 | 0.00 | 0.00 | 0.00 | 96 | 1010.5 |
| 20260901102330 | 59 | 0 | 0.0 | 0.0 | 0.00 | 0.00 | 0.00 | 96 | 1010.5 |
| 20260901101830 | 60 | 0 | 0.0 | 0.0 | 0.00 | 0.00 | 0.00 | 96 | 1010.4 |
| 20260901101331 | 60 | 0 | 0.0 | 0.0 | 0.00 | 0.00 | 0.00 | 96 | 1010.4 |
| 20260901100830 | 60 | 0 | 0.0 | 0.0 | 0.00 | 0.00 | 0.00 | 95 | 1010.4 |
| 20260901100330 | 60 | 0 | 0.0 | 0.0 | 0.00 | 0.00 | 0.00 | 95 | 1010.4 |
| 20260901095831 | 60 | 0 | 0.0 | 0.0 | 0.00 | 0.00 | 0.00 | 95 | 1010.4 |
| 20260901095330 | 60 | 0 | 0.0 | 0.0 | 0.00 | 0.00 | 0.00 | 95 | 1010.4 |
| 20260901094831 | 60 | 0 | 0.0 | 0.0 | 0.00 | 0.00 | 0.00 | 95 | 1010.4 |
| 20260901093830 | 60 | 0 | 0.0 | 0.0 | 0.00 | 0.00 | 0.00 | 95 | 1010.4 |
| 20260901093331 | 60 | 0 | 0.0 | 0.0 | 0.00 | 0.00 | 0.00 | 95 | 1010.4 |
| 20260901092830 | 60 | 0 | 0.0 | 0.0 | 0.00 | 0.00 | 0.00 | 95 | 1010.4 |
| 20260901092330 | 60 | 0 | 0.0 | 0.0 | 0.00 | 0.00 | 0.00 | 95 | 1010.4 |
| 20260901091830 | 60 | 0 | 0.0 | 0.0 | 0.00 | 0.00 | 0.00 | 95 | 1010.5 |
| 20260901091331 | 60 | 0 | 0.0 | 0.0 | 0.00 | 0.00 | 0.00 | 95 | 1010.5 |
| 20260901090833 | 60 | 0 | 0.0 | 0.0 | 0.00 | 0.00 | 0.00 | 95 | 1010.5 |
| 20260901090330 | 60 | 0 | 0.0 | 0.0 | 0.00 | 0.00 | 0.00 | 95 | 1010.5 |
| 20260901085830 | 60 | 0 | 0.0 | 0.0 | 0.00 | 0.00 | 0.00 | 95 | 1010.5 |
| 20260901085330 | 60 | 0 | 0.0 | 0.0 | 0.00 | 0.00 | 0.00 | 95 | 1010.5 |
| 20260901084830 | 60 | 0 | 0.0 | 0.0 | 0.00 | 0.00 | 0.00 | 95 | 1010.3 |
| 20260901084334 | 60 | 0 | 0.0 | 0.0 | 0.00 | 0.00 | 0.00 | 95 | 1010.5 |
| 20260901083830 | 60 | 0 | 0.0 | 0.0 | 0.00 | 0.00 | 0.00 | 94 | 1010.6 |
| 20260901083330 | 60 | 0 | 0.0 | 0.0 | 0.00 | 0.00 | 0.00 | 94 | 1010.6 |
| 20260901082830 | 60 | 0 | 0.0 | 0.0 | 0.00 | 0.00 | 0.00 | 94 | 1010.6 |
| 20260901081830 | 60 | 0 | 0.0 | 0.0 | 0.00 | 0.00 | 0.00 | 94 | 1010.5 |
| 20260901080330 | 60 | 0 | 0.0 | 0.0 | 0.00 | 0.00 | 0.00 | 94 | 1010.6 |
| 20260901075830 | 60 | 0 | 0.0 | 0.0 | 0.00 | 0.00 | 0.00 | 94 | 1010.5 |
| 20260901075330 | 60 | 0 | 0.0 | 0.0 | 0.00 | 0.00 | 0.00 | 94 | 1010.6 |
| 20260901074830 | 61 | 0 | 0.0 | 0.0 | 0.00 | 0.00 | 0.00 | 94 | 1010.6 |
| 20260901074331 | 60 | 0 | 0.0 | 0.0 | 0.00 | 0.00 | 0.00 | 94 | 1010.5 |
| 20260901073830 | 60 | 0 | 0.0 | 0.0 | 0.00 | 0.00 | 0.00 | 94 | 1010.5 |
| 20260901072831 | 61 | 0 | 0.0 | 0.0 | 0.00 | 0.00 | 0.00 | 94 | 1010.3 |
| 20260901071831 | 61 | 0 | 0.0 | 0.0 | 0.00 | 0.00 | 0.00 | 94 | 1010.4 |
| 20260901071331 | 61 | 0 | 0.0 | 0.0 | 0.00 | 0.00 | 0.00 | 94 | 1010.5 |
| 20260901070831 | 61 | 0 | 0.0 | 0.0 | 0.00 | 0.00 | 0.00 | 94 | 1010.2 |
| 20260901070330 | 61 | 0 | 0.0 | 0.0 | 0.00 | 0.00 | 0.00 | 94 | 1010.3 |
| 20260901065830 | 61 | 0 | 0.0 | 0.0 | 0.00 | 0.00 | 0.00 | 94 | 1010.3 |
| 20260901065330 | 61 | 0 | 0.0 | 0.0 | 0.00 | 0.00 | 0.00 | 94 | 1010.4 |
| 20260901064830 | 61 | 0 | 0.0 | 0.0 | 0.00 | 0.00 | 0.00 | 94 | 1010.2 |
| 20260901064335 | 61 | 0 | 0.0 | 0.0 | 0.00 | 0.00 | 0.00 | 94 | 1010.3 |
| 20260901063830 | 61 | 0 | 0.0 | 0.0 | 0.00 | 0.00 | 0.00 | 94 | 1010.3 |
| 20260901063330 | 61 | 0 | 0.0 | 0.0 | 0.00 | 0.00 | 0.00 | 94 | 1010.3 |
| 20260901062830 | 61 | 0 | 0.0 | 0.0 | 0.00 | 0.00 | 0.00 | 94 | 1010.3 |
| 20260901062330 | 61 | 0 | 0.0 | 0.0 | 0.00 | 0.00 | 0.00 | 94 | 1010.2 |
| 20260901061830 | 61 | 0 | 0.0 | 0.0 | 0.00 | 0.00 | 0.00 | 94 | 1010.3 |
| 20260901061334 | 61 | 0 | 0.0 | 0.0 | 0.00 | 0.00 | 0.00 | 94 | 1010.3 |
| 20260901060330 | 61 | 0 | 0.0 | 0.0 | 0.00 | 0.00 | 0.00 | 93 | 1010.2 |
| 20260901055830 | 61 | 0 | 0.0 | 0.0 | 0.00 | 0.00 | 0.00 | 94 | 1010.3 |
| 20260901055330 | 61 | 0 | 0.0 | 0.0 | 0.00 | 0.00 | 0.00 | 94 | 1010.3 |
| 20260901054331 | 61 | 0 | 0.0 | 0.0 | 0.00 | 0.00 | 0.00 | 93 | 1010.2 |
| 20260901053830 | 61 | 0 | 0.0 | 0.0 | 0.00 | 0.00 | 0.00 | 93 | 1010.2 |
| 20260901052834 | 61 | 0 | 0.0 | 0.0 | 0.00 | 0.00 | 0.00 | 93 | 1010.3 |
| 20260901052330 | 61 | 0 | 0.0 | 0.0 | 0.00 | 0.00 | 0.00 | 93 | 1010.2 |
| 20260901051830 | 61 | 0 | 0.0 | 0.0 | 0.00 | 0.00 | 0.00 | 93 | 1010.2 |
| 20260901051334 | 61 | 0 | 0.0 | 0.0 | 0.00 | 0.00 | 0.00 | 93 | 1010.2 |
| 20260901050830 | 61 | 0 | 0.0 | 0.0 | 0.00 | 0.00 | 0.00 | 93 | 1010.2 |
| 20260901050330 | 61 | 0 | 0.0 | 0.0 | 0.00 | 0.00 | 0.00 | 93 | 1010.2 |
| 20260901045830 | 61 | 0 | 0.0 | 0.0 | 0.00 | 0.00 | 0.00 | 93 | 1010.2 |
| 20260901045330 | 61 | 0 | 0.0 | 0.0 | 0.00 | 0.00 | 0.00 | 93 | 1010.2 |
| 20260901044830 | 61 | 0 | 0.0 | 0.0 | 0.00 | 0.00 | 0.00 | 93 | 1010.2 |
| 20260901043830 | 61 | 0 | 0.0 | 0.0 | 0.00 | 0.00 | 0.00 | 93 | 1010.3 |
| 20260901043330 | 61 | 0 | 0.0 | 0.0 | 0.00 | 0.00 | 0.00 | 93 | 1010.3 |
| 20260901042330 | 61 | 0 | 0.0 | 0.0 | 0.00 | 0.00 | 0.00 | 93 | 1010.3 |
| 20260901041830 | 61 | 0 | 0.0 | 0.0 | 0.00 | 0.00 | 0.00 | 93 | 1010.3 |
| 20260901041331 | 61 | 0 | 0.0 | 0.0 | 0.00 | 0.00 | 0.00 | 93 | 1010.1 |
| 20260901040330 | 61 | 0 | 0.0 | 0.0 | 0.00 | 0.00 | 0.00 | 93 | 1010.2 |
| 20260901035330 | 61 | 0 | 0.0 | 0.0 | 0.00 | 0.00 | 0.00 | 93 | 1010.1 |
| 20260901034830 | 61 | 0 | 0.0 | 0.0 | 0.00 | 0.00 | 0.00 | 93 | 1010.1 |
| 20260901033830 | 61 | 0 | 0.0 | 0.0 | 0.00 | 0.00 | 0.00 | 93 | 1009.8 |
| 20260901033330 | 62 | 0 | 0.0 | 0.0 | 0.00 | 0.00 | 0.00 | 93 | 1009.7 |
| 20260901032330 | 62 | 0 | 0.0 | 0.0 | 0.00 | 0.00 | 0.00 | 93 | 1009.7 |
| 20260901031830 | 62 | 0 | 0.0 | 0.0 | 0.00 | 0.00 | 0.00 | 92 | 1009.7 |
| 20260901030830 | 62 | 0 | 0.0 | 0.0 | 0.00 | 0.00 | 0.00 | 92 | 1009.6 |
| 20260901025830 | 62 | 0 | 0.0 | 0.0 | 0.00 | 0.00 | 0.00 | 92 | 1009.6 |
| 20260901025330 | 62 | 0 | 0.0 | 0.0 | 0.00 | 0.00 | 0.00 | 92 | 1009.6 |
| 20260901022830 | 62 | 0 | 0.0 | 0.0 | 0.00 | 0.00 | 0.00 | 91 | 1009.3 |
| 20260901022330 | 62 | 0 | 0.0 | 0.0 | 0.00 | 0.00 | 0.00 | 91 | 1009.2 |
| 20260901021831 | 62 | 0 | 0.0 | 0.0 | 0.00 | 0.00 | 0.00 | 91 | 1009.3 |
| 20260901021331 | 62 | 0 | 0.0 | 0.0 | 0.00 | 0.00 | 0.00 | 91 | 1009.3 |
| 20260901020829 | 62 | 0 | 0.0 | 1.0 | 0.00 | 0.00 | 0.00 | 91 | 1009.2 |
| 20260901020330 | 62 | 219 | 0.0 | 1.0 | 0.00 | 0.00 | 0.00 | 91 | 1009.2 |
| 20260901015830 | 62 | 0 | 0.0 | 0.0 | 0.00 | 0.00 | 0.00 | 90 | 1009.2 |
| 20260901015329 | 62 | 0 | 0.0 | 0.0 | 0.00 | 0.00 | 0.00 | 90 | 1009.3 |
| 20260901014831 | 63 | 0 | 0.0 | 0.0 | 0.00 | 0.00 | 0.00 | 90 | 1009.3 |
| 20260901013829 | 63 | 0 | 0.0 | 0.0 | 0.00 | 0.00 | 0.00 | 90 | 1009.3 |
| 20260901013329 | 63 | 0 | 0.0 | 0.0 | 0.00 | 0.00 | 0.00 | 89 | 1009.3 |
| 20260901012830 | 63 | 0 | 0.0 | 4.0 | 0.00 | 0.00 | 0.00 | 89 | 1009.4 |
| 20260901012329 | 63 | 0 | 0.0 | 4.0 | 0.00 | 0.00 | 0.00 | 88 | 1009.5 |